[[[{"header":{"parameterUnit":"kt","parameterCategory":2,"dx":1,"dy":1,"la1":30.253999710083008,"la2":30.299108505249023,"lo1":-89.0895004272461,"lo2":-89.04439544677734,"nx":28,"ny":28,"refTime":"2022-09-20T09:00:00:Z","depth":0,"parameterNumber":1,"parameterNumberName":"U-component_of_WINDS"},"data":[1.4435,1.4486,1.4495,1.4557,1.4577,1.462,1.4638,1.4662,1.4684,1.4736,1.4767,1.4781,1.4806,1.4844,1.4877,1.4882,1.4894,1.4904,1.4908,1.4858,1.4851,1.4845,1.4833,1.4907,1.4907,1.4957,1.4957,1.4958,1.439,1.441,1.4447,1.4489,1.452,1.4515,1.4548,1.4573,1.4612,1.4641,1.4673,1.4719,1.4756,1.4779,1.4816,1.4838,1.4837,1.4847,1.4844,1.4847,1.4794,1.4782,1.4846,1.4846,1.4846,1.4846,1.4846,1.4846,1.4311,1.4343,1.4374,1.4415,1.4439,1.4467,1.4498,1.4516,1.4552,1.4594,1.46,1.4644,1.4673,1.4725,1.4744,1.4777,1.4768,1.4782,1.4784,1.4787,1.4786,1.4705,1.4785,1.4785,1.4785,1.4784,1.4784,0,1.4255,1.4262,1.4299,1.4339,1.4369,1.4402,1.4433,1.4452,1.447,1.4499,1.4541,1.4567,1.4618,1.4658,1.4697,1.4715,1.4712,1.4715,1.4723,1.4719,1.4708,1.471,1.462,1.4712,1.4712,1.4711,1.4711,1.4711,1.4172,1.421,1.425,1.4275,1.4295,1.4336,1.4361,1.4375,1.4401,1.4441,1.4468,1.451,1.4543,1.461,1.4631,1.4669,1.4668,1.4701,1.4673,1.4667,1.4663,1.4659,1.4661,1.4705,1.4706,1.4706,1.4707,0,1.4124,1.4142,1.4204,1.4241,1.4251,1.4289,1.432,1.4352,1.4368,1.4414,1.4425,1.4449,1.4491,1.4507,1.456,1.4566,1.4622,1.4623,1.461,1.461,1.4638,1.4634,1.4736,1.4748,1.4676,1.4676,1.4677,0,1.4058,1.4108,1.4132,1.4167,1.4222,1.4235,1.4288,1.4307,1.4335,1.4372,1.4374,1.4408,1.4425,1.4461,1.4471,1.4521,1.4533,1.4539,1.4541,1.4537,1.4536,1.4549,1.4544,1.4549,1.4549,1.4548,1.4548,0,1.3977,1.4051,1.4109,1.4129,1.4174,1.4201,1.4221,1.4254,1.428,1.4317,1.4333,1.4375,1.4398,1.4429,1.4442,1.4422,1.4505,1.4481,1.4512,1.4511,1.4528,1.4526,1.4615,1.4547,1.4547,1.4547,1.4546,0,1.3926,1.3965,1.4049,1.4085,1.4104,1.4144,1.4186,1.4224,1.4259,1.4268,1.4298,1.4301,1.435,1.4323,1.439,1.4359,1.438,1.4393,1.4395,1.4398,1.4367,1.441,1.4497,1.4504,1.4403,1.4401,1.44,0,1.3825,1.3916,1.3929,1.4009,1.4052,1.405,1.4094,1.4127,1.4143,1.4182,1.42,1.4245,1.423,1.4246,1.4277,1.4297,1.4336,1.4293,1.4342,1.4344,1.4329,1.4409,1.4416,1.4476,1.4386,1.4387,1.4388,0,1.3749,1.3807,1.3821,1.3842,1.389,1.3929,1.398,1.4028,1.4052,1.4091,1.4132,1.4199,1.4187,1.4216,1.4224,1.4256,1.431,1.424,1.4241,1.4248,1.4382,1.4387,1.4397,1.4308,1.431,1.4311,1.4376,0,1.3658,1.3709,1.3749,1.3802,1.3836,1.3889,1.3909,1.3941,1.3945,1.3962,1.4026,1.406,1.411,1.4129,1.4135,1.4203,1.4193,1.4183,1.4157,1.4211,1.4233,1.4242,1.4123,1.4122,1.4121,1.4121,0,0,1.3554,1.3628,1.3643,1.3695,1.3723,1.3722,1.3777,1.3805,1.3863,1.3881,1.3867,1.3966,1.3995,1.407,1.4088,1.4111,1.4123,1.4106,1.4186,1.4194,1.42,1.4223,1.4233,1.412,1.412,1.412,1.412,0,1.3525,1.3558,1.3613,1.3643,1.3688,1.3705,1.3718,1.3763,1.3777,1.3843,1.384,1.3881,1.3963,1.3992,1.4017,1.4097,1.4092,1.4112,1.4145,1.4181,1.4188,1.4195,1.4219,1.4228,1.4118,1.4118,1.4119,0,1.345,1.3483,1.3514,1.3583,1.3613,1.3661,1.3638,1.3692,1.3727,1.3725,1.379,1.3812,1.3855,1.3926,1.3959,1.3947,1.4062,1.4033,1.4036,1.404,1.4075,1.4084,1.4093,1.398,1.398,1.3979,0,0,1.3421,1.3471,1.3512,1.3579,1.3598,1.3625,1.3654,1.3661,1.3701,1.3717,1.3746,1.3783,1.383,1.3861,1.3906,1.3983,1.3991,1.4015,1.4021,1.4026,1.4032,1.4069,1.4078,1.3977,1.3977,1.3977,0,0,1.3408,1.3459,1.3457,1.3537,1.3574,1.362,1.3659,1.3657,1.3701,1.3697,1.3713,1.3724,1.3791,1.3815,1.3783,1.3897,1.3871,1.3879,1.3879,1.3888,1.3894,1.3886,1.3764,0,0,0,0,0,1.3389,1.3452,1.345,1.3467,1.3556,1.3621,1.3632,1.3647,1.3627,1.3657,1.368,1.3675,1.3799,1.3771,1.3787,1.3823,1.3949,1.3954,1.3958,1.3976,1.3985,1.3992,0,0,0,0,0,0,1.3396,1.3417,1.3448,1.3496,1.3516,1.3619,1.3587,1.3593,1.3624,1.3622,1.3671,1.3677,1.3691,1.3764,1.3779,1.3812,1.3759,1.3951,1.3955,1.3959,1.3979,1.3986,1.3992,0,0,0,0,0,1.3402,1.3418,1.3558,1.3495,1.3513,1.3547,1.3585,1.359,1.3614,1.3652,1.3658,1.3622,1.3691,1.3704,1.3773,1.3805,1.375,1.3755,1.3953,1.3957,1.396,1.3983,0,0,0,0,0,0,1.3406,1.3423,1.3562,1.3568,1.3473,1.3541,1.3553,1.3587,1.3642,1.3649,1.3604,1.3601,1.3692,1.3702,1.3712,1.3801,1.3742,1.3747,1.375,1.3956,1.3958,1.3961,0,0,0,0,0,0,1.3414,1.3428,1.3565,1.3537,1.354,1.3536,1.3546,1.3608,1.3643,1.3591,1.3591,1.3602,1.3677,1.3701,1.3709,1.3805,1.3736,1.3741,1.3744,1.3747,1.3958,1.396,0,0,0,0,0,0,1.342,1.3432,1.3535,1.3537,1.354,1.3606,1.3591,1.3682,1.3619,1.3589,1.3614,1.3611,1.3677,1.3685,1.3707,1.3799,1.3804,1.3736,1.3739,1.3742,1.3743,0,0,0,0,0,0,0,1.3425,1.3342,1.3528,1.3538,1.354,1.3622,1.3623,1.3625,1.3618,1.3616,1.3614,1.3612,1.3706,1.3712,1.3718,1.3795,0,0,1.3735,1.3738,0,0,0,0,0,0,0,0,1.3337,1.3341,1.3528,1.3529,1.353,1.3622,1.3623,1.3625,1.3618,1.3616,1.3615,1.3613,1.3708,1.3712,1.3717,0,0,0,0,0,0,0,0,0,0,0,0,0,0,0,1.3528,1.3529,0,1.3622,1.3623,1.3624,1.3618,1.3616,1.3615,1.3614,1.3709,1.3713,1.3717,0,0,0,0,0,0,0,0,0,0,0,0,0,0,0,0,0,0,0,0,0,0,0,0,0,0,0,0,0,0,0,0,0,0,0,0,0,0,0,0,0,0,0,0,0,0,0,0,0,0,0,0,0,0,0,0,0,0,0,0,0,0,0,0,0,0,0,0,0]}],[{"header":{"parameterUnit":"kt","parameterCategory":2,"dx":1,"dy":1,"la1":30.253999710083008,"la2":30.299108505249023,"lo1":-89.0895004272461,"lo2":-89.04439544677734,"nx":28,"ny":28,"refTime":"2022-09-20T09:00:00:Z","depth":0,"parameterNumber":2,"parameterNumberName":"V-component_of_WINDS"},"data":[4.7915,4.7938,4.7935,4.7959,4.7961,4.7977,4.7981,4.7987,4.7991,4.8009,4.8018,4.8018,4.802,4.803,4.8039,4.8039,4.8041,4.8051,4.8048,4.8009,4.8004,4.7998,4.7992,4.8052,4.8053,4.8086,4.8086,4.8087,4.7885,4.7887,4.79,4.791,4.7921,4.791,4.7918,4.7926,4.7941,4.7946,4.7956,4.7971,4.7983,4.7982,4.7992,4.8001,4.7995,4.8003,4.8001,4.8001,4.7961,4.7954,4.8008,4.8008,4.8008,4.8008,4.8007,4.8007,4.7828,4.7842,4.7847,4.7861,4.7866,4.7873,4.7886,4.7885,4.7897,4.7909,4.7904,4.792,4.7924,4.7936,4.7939,4.795,4.794,4.7948,4.7949,4.795,4.795,4.7896,4.7952,4.7952,4.7952,4.7952,4.7952,0,4.7784,4.7781,4.7794,4.7806,4.7816,4.7825,4.7833,4.7841,4.7833,4.7844,4.7858,4.7866,4.7881,4.7893,4.7903,4.7905,4.7892,4.7892,4.7896,4.7896,4.7895,4.7892,4.7823,4.7889,4.7889,4.7889,4.7888,4.7888,4.7723,4.7742,4.7747,4.7756,4.7759,4.7775,4.7783,4.7776,4.7785,4.7793,4.7805,4.7819,4.7828,4.7852,4.785,4.7861,4.7854,4.7879,4.7855,4.7855,4.785,4.7847,4.7847,4.7882,4.7883,4.7884,4.7884,0,4.7688,4.7685,4.7713,4.7716,4.7717,4.7736,4.7738,4.7753,4.7751,4.777,4.7774,4.777,4.7784,4.7778,4.7794,4.779,4.7817,4.7813,4.7815,4.7812,4.7831,4.7828,4.7901,4.7908,4.785,4.785,4.7851,0,4.7632,4.7657,4.765,4.7667,4.7694,4.7685,4.7712,4.7713,4.7717,4.7732,4.7719,4.7733,4.7724,4.7737,4.7731,4.7753,4.7757,4.7754,4.7751,4.7753,4.7753,4.7754,4.775,4.775,4.775,4.775,4.7749,0,4.7574,4.7601,4.7629,4.7634,4.764,4.7653,4.7656,4.7662,4.767,4.768,4.7685,4.7698,4.7704,4.7714,4.7706,4.769,4.7735,4.7711,4.7731,4.7731,4.7738,4.7737,4.7806,4.7749,4.7749,4.7749,4.7749,0,4.7526,4.7539,4.7581,4.7584,4.7592,4.7611,4.7622,4.7638,4.7644,4.7642,4.765,4.7639,4.7661,4.7637,4.7666,4.7646,4.7653,4.7653,4.7654,4.7652,4.7624,4.7659,4.773,4.7735,4.7655,4.7654,4.7653,0,4.7458,4.7501,4.7494,4.7534,4.7552,4.7534,4.7556,4.7562,4.7561,4.7575,4.7574,4.7591,4.7572,4.7576,4.7592,4.759,4.7616,4.7587,4.7603,4.7604,4.7597,4.7663,4.7673,4.7716,4.7643,4.7644,4.7645,0,4.7404,4.7413,4.7421,4.7425,4.7434,4.745,4.7476,4.7491,4.75,4.7511,4.7529,4.7556,4.7541,4.7549,4.7542,4.7558,4.7598,4.754,4.754,4.7547,4.7639,4.7648,4.7655,4.7589,4.7591,4.7592,4.7637,0,4.7325,4.7347,4.737,4.7384,4.7396,4.7423,4.7418,4.7431,4.7422,4.742,4.7449,4.7455,4.747,4.7479,4.7471,4.7512,4.7503,4.7488,4.7461,4.7507,4.7521,4.7527,4.744,4.744,4.7439,4.7438,0,0,4.7257,4.7289,4.7282,4.7306,4.7315,4.7297,4.7325,4.7332,4.7347,4.7353,4.7339,4.7375,4.738,4.7416,4.743,4.7438,4.7443,4.7428,4.7486,4.7492,4.7497,4.7512,4.7519,4.7437,4.7437,4.7437,4.7437,0,4.7226,4.7235,4.7265,4.7272,4.7282,4.7279,4.7286,4.7293,4.7293,4.7323,4.7305,4.7323,4.7354,4.736,4.7367,4.7425,4.7409,4.7431,4.7462,4.748,4.7486,4.7492,4.7508,4.7515,4.7435,4.7435,4.7435,0,4.7168,4.7174,4.7189,4.7212,4.7218,4.7239,4.721,4.7235,4.7249,4.7227,4.7257,4.7259,4.7267,4.7304,4.732,4.7307,4.7378,4.7357,4.7361,4.7361,4.7378,4.7386,4.7392,4.7302,4.7302,4.7301,0,0,4.7142,4.7164,4.7167,4.7205,4.721,4.7207,4.7218,4.721,4.7219,4.7223,4.7225,4.7234,4.7251,4.7263,4.7279,4.7322,4.732,4.734,4.7347,4.7352,4.7355,4.7373,4.7381,4.73,4.73,4.73,0,0,4.7129,4.7134,4.7124,4.7168,4.7177,4.7182,4.7204,4.7192,4.7207,4.7202,4.7191,4.7192,4.7227,4.723,4.7208,4.7269,4.7243,4.7248,4.7265,4.7273,4.7279,4.7276,4.7178,0,0,0,0,0,4.7094,4.7133,4.7124,4.7131,4.7161,4.7187,4.7191,4.7182,4.7163,4.7181,4.718,4.7164,4.7215,4.7196,4.7202,4.7225,4.7278,4.7282,4.7286,4.7317,4.7326,4.7332,0,0,0,0,0,0,4.7096,4.7104,4.7123,4.713,4.7137,4.7186,4.7151,4.715,4.7161,4.7157,4.7165,4.7164,4.7157,4.7192,4.7197,4.722,4.7176,4.728,4.7283,4.7286,4.732,4.7327,4.7333,0,0,0,0,0,4.7098,4.7104,4.7155,4.7129,4.7135,4.7133,4.715,4.7148,4.7156,4.7156,4.7155,4.7149,4.7158,4.7162,4.7195,4.7217,4.7172,4.7174,4.7282,4.7284,4.7287,4.7323,0,0,0,0,0,0,4.7099,4.7103,4.7156,4.7157,4.7114,4.713,4.7133,4.7147,4.7155,4.7154,4.714,4.7137,4.7159,4.7162,4.7165,4.7217,4.7168,4.7171,4.7172,4.7284,4.7286,4.7287,0,0,0,0,0,0,4.7099,4.7104,4.7156,4.7138,4.7137,4.7127,4.713,4.7157,4.7155,4.7138,4.7135,4.7138,4.7154,4.7162,4.7165,4.7208,4.7166,4.7168,4.717,4.717,4.7285,4.7287,0,0,0,0,0,0,4.7101,4.7105,4.7137,4.7136,4.7136,4.715,4.7151,4.7182,4.714,4.7138,4.7136,4.7134,4.7155,4.7157,4.7164,4.7207,4.7208,4.7166,4.7167,4.7168,4.7169,0,0,0,0,0,0,0,4.7103,4.7077,4.7148,4.7136,4.7135,4.717,4.717,4.717,4.7139,4.7138,4.7136,4.7135,4.7154,4.7156,4.7159,4.7206,0,0,4.7166,4.7167,0,0,0,0,0,0,0,0,4.7075,4.7077,4.7148,4.7148,4.7149,4.717,4.717,4.717,4.7139,4.7138,4.7136,4.7135,4.7155,4.7157,4.7159,0,0,0,0,0,0,0,0,0,0,0,0,0,0,0,4.7148,4.7148,0,4.717,4.717,4.717,4.7139,4.7138,4.7137,4.7136,4.7155,4.7157,4.7158,0,0,0,0,0,0,0,0,0,0,0,0,0,0,0,0,0,0,0,0,0,0,0,0,0,0,0,0,0,0,0,0,0,0,0,0,0,0,0,0,0,0,0,0,0,0,0,0,0,0,0,0,0,0,0,0,0,0,0,0,0,0,0,0,0,0,0,0,0]}]]]